This demonstration page uses our WeatherBlox Daily Observations layout. Learn more.

Left ArrowRight Arrow

Hourly Observations for February 6, 2019

Temp ( °F °C ) Dew Point ( °F °C ) Humidity (%) Winds ( mph kmh ) Pressure ( in mb ) Visibility ( mi km ) Precip ( " mm )
12:16 am 00:16 Cloudy 39 4 39 4 100 100 SE 7 11 29.97 1015 3 4 N/A
12:35 am 00:35 Cloudy 39 4 39 4 100 100 SE 7 11 29.97 1015 3 5 N/A
12:56 am 00:56 Cloudy 39 4 39 4 100 100 SE 7 11 29.95 1014 2 3 N/A
1:16 am 01:16 Cloudy 41 5 41 5 100 100 SSE 7 11 29.95 1014 2 3 N/A
1:35 am 01:35 Cloudy 41 5 41 5 100 100 SSE 6 9 29.94 1014 2 3 N/A
1:56 am 01:56 Cloudy 43 6 43 6 100 100 SSE 5 7 29.93 1014 2 2 N/A
2:16 am 02:16 Cloudy 45 7 45 7 100 100 S 8 13 29.93 1014 3 5 N/A
2:35 am 02:35 Cloudy 46 8 46 8 100 100 S 7 11 29.92 1013 4 6 N/A
2:56 am 02:56 Cloudy 46 8 46 8 100 100 W 12 19 29.95 1014 4 6 N/A
3:15 am 03:15 Cloudy 46 8 46 8 100 100 SSW 5 7 29.93 1013 3 4 N/A
3:36 am 03:36 Cloudy 46 8 46 8 100 100 S 10 17 29.93 1013 4 6 N/A
3:56 am 03:56 Cloudy 46 8 46 8 100 100 SSE 7 11 29.89 1012 4 6 N/A
4:15 am 04:15 Cloudy 48 9 48 9 100 100 S 13 20 29.87 1012 4 6 N/A
4:36 am 04:36 Cloudy 48 9 48 9 100 100 S 8 13 29.86 1011 5 8 N/A
4:56 am 04:56 Cloudy 48 9 48 9 100 100 S 8 13 29.86 1011 7 11 N/A
5:15 am 05:15 Cloudy 48 9 48 9 100 100 N N/A 29.86 1011 5 8 N/A
5:36 am 05:36 Cloudy 48 9 48 9 100 100 N N/A 29.86 1011 2 3 N/A
5:56 am 05:56 Cloudy 45 7 45 7 100 100 SSE 7 11 29.88 1012 1 1 N/A
6:15 am 06:15 Cloudy 48 9 48 9 100 100 SSW 6 9 29.87 1012 2 3 N/A
6:36 am 06:36 Cloudy 48 9 48 9 100 100 S 7 11 29.87 1012 3 4 N/A
6:56 am 06:56 Cloudy 48 9 48 9 100 100 SSE 3 6 29.86 1011 3 4 N/A
7:15 am 07:15 Cloudy 46 8 46 8 100 100 SE 6 9 29.86 1011 1 1 N/A
7:36 am 07:36 Cloudy 46 8 46 8 100 100 SSE 5 7 29.85 1011 1 2 N/A
7:55 am 07:55 Cloudy 46 8 46 8 100 100 SSW 5 7 29.87 1011 1 1 N/A
8:16 am 08:16 Cloudy 48 9 48 9 100 100 SSW 7 11 29.88 1012 1 2 N/A
8:35 am 08:35 Cloudy 48 9 48 9 100 100 SSW 3 6 29.87 1012 1 1 N/A
8:55 am 08:55 Cloudy 48 9 48 9 100 100 SW 3 6 29.89 1012 1 1 N/A
9:16 am 09:16 Cloudy 48 9 48 9 100 100 S 3 6 29.88 1012 1 1 N/A
9:35 am 09:35 Cloudy 46 8 46 8 100 100 ESE 5 7 29.87 1011 0 0 N/A
9:55 am 09:55 Cloudy 46 8 46 8 100 100 SSW 5 7 29.88 1012 0 0 N/A
10:16 am 10:16 Cloudy 48 9 48 9 100 100 N N/A 29.87 1012 0 0 N/A
10:35 am 10:35 Cloudy 48 9 48 9 100 100 WSW 6 9 29.89 1012 0 0 N/A
10:55 am 10:55 Cloudy 48 9 48 9 100 100 SW 6 9 29.90 1013 0 0 N/A
11:15 am 11:15 Cloudy 50 10 50 10 100 100 W 9 15 29.90 1013 4 6 N/A
11:35 am 11:35 Cloudy 50 10 50 10 100 100 W 9 15 29.90 1013 4 6 N/A
11:56 am 11:56 Cloudy 50 10 50 10 100 100 W 9 15 29.90 1013 3 5 N/A
12:15 pm 12:15 Cloudy 50 10 50 10 100 100 NW 8 13 29.90 1013 3 5 N/A
12:35 pm 12:35 Cloudy 48 9 48 9 100 100 WNW 10 17 29.91 1013 7 11 N/A
12:56 pm 12:56 Cloudy 48 9 48 9 100 100 W 6 9 29.90 1013 7 11 N/A
1:15 pm 13:15 Cloudy 48 9 48 9 100 100 WNW 7 11 29.91 1013 5 8 N/A
1:36 pm 13:36 Cloudy 48 9 48 9 100 100 NW 5 7 29.90 1013 7 11 N/A
1:55 pm 13:55 Cloudy 48 9 48 9 100 100 WNW 5 7 29.89 1012 7 11 N/A
2:15 pm 14:15 Cloudy 46 8 46 8 100 100 WNW 8 13 29.91 1013 10 16 N/A
2:36 pm 14:36 Cloudy 46 8 46 8 100 100 NW 7 11 29.92 1013 7 11 N/A
2:55 pm 14:55 Cloudy 46 8 46 8 100 100 W 5 7 29.91 1013 7 11 N/A
3:15 pm 15:15 Cloudy 46 8 46 8 100 100 W 7 11 29.91 1013 7 11 N/A
3:36 pm 15:36 Cloudy 46 8 46 8 100 100 WNW 6 9 29.91 1013 7 11 N/A
3:55 pm 15:55 Cloudy 46 8 46 8 100 100 NW 6 9 29.93 1013 7 11 N/A
4:15 pm 16:15 Cloudy 46 8 46 8 100 100 N N/A 29.92 1013 7 11 N/A
4:36 pm 16:36 Cloudy 45 7 45 7 100 100 N N/A 29.92 1013 5 8 N/A
4:55 pm 16:55 Cloudy 45 7 45 7 100 100 WNW 3 6 29.93 1014 5 8 N/A
5:15 pm 17:15 Cloudy 45 7 45 7 100 100 NW 6 9 29.96 1015 5 8 N/A
5:35 pm 17:35 Cloudy 45 7 45 7 100 100 N N/A 29.94 1014 5 8 N/A
5:55 pm 17:55 Cloudy 43 6 43 6 100 100 N N/A 29.95 1014 3 5 N/A
6:15 pm 18:15 Cloudy 43 6 43 6 100 100 N N/A 29.95 1014 3 4 N/A
6:35 pm 18:35 Cloudy 43 6 43 6 100 100 NNE 3 6 29.95 1014 4 6 N/A
6:55 pm 18:55 Cloudy 43 6 43 6 100 100 N N/A 29.96 1015 4 6 N/A
7:15 pm 19:15 Cloudy 43 6 43 6 100 100 NNE 5 7 29.96 1015 3 5 N/A
7:16 pm 19:16 Cloudy 43 6 43 6 100 100 NNE 5 7 29.96 1015 3 5 N/A
7:35 pm 19:35 Cloudy 43 6 43 6 100 100 NE 3 6 29.96 1015 3 5 N/A
7:55 pm 19:55 Cloudy 41 5 41 5 100 100 N 5 7 29.98 1015 3 4 N/A
8:15 pm 20:15 Cloudy 41 5 41 5 100 100 N 6 9 29.99 1015 1 1 N/A
8:16 pm 20:16 Cloudy 41 5 41 5 100 100 N 6 9 29.99 1015 1 1 N/A
8:35 pm 20:35 Cloudy 41 5 41 5 100 100 N 5 7 30.00 1016 1 2 N/A
8:55 pm 20:55 Cloudy 41 5 41 5 100 100 NNE 5 7 30.00 1016 1 2 N/A
9:15 pm 21:15 Cloudy 41 5 41 5 100 100 N N/A 29.99 1015 1 1 N/A
9:16 pm 21:16 Cloudy 41 5 41 5 100 100 E 3 6 29.99 1015 1 1 N/A
9:35 pm 21:35 Cloudy 41 5 41 5 100 100 N N/A 30.00 1016 1 2 N/A
9:55 pm 21:55 Cloudy 41 5 41 5 100 100 E 5 7 29.99 1015 1 1 N/A
10:15 pm 22:15 Cloudy 41 5 41 5 100 100 E 3 6 29.99 1015 1 2 N/A
10:16 pm 22:16 Cloudy 41 5 41 5 100 100 E 3 6 29.99 1015 1 2 N/A
10:35 pm 22:35 Cloudy 41 5 41 5 100 100 N N/A 29.98 1015 1 2 N/A
10:55 pm 22:55 Cloudy 41 5 41 5 100 100 NE 3 6 29.97 1015 1 1 N/A
10:56 pm 22:56 Cloudy 41 5 41 5 100 100 NE 3 6 29.97 1015 1 1 N/A
11:15 pm 23:15 Cloudy 41 5 41 5 100 100 E 5 7 29.96 1014 1 1 N/A
11:16 pm 23:16 Cloudy 41 5 41 5 100 100 E 5 7 29.96 1014 1 2 N/A
11:35 pm 23:35 Cloudy 41 5 41 5 100 100 ESE 6 9 29.95 1014 2 2 N/A
11:55 pm 23:55 Cloudy 43 6 43 6 100 100 N N/A 29.95 1014 3 4 N/A
11:56 pm 23:56 Cloudy 43 6 43 6 100 100 N N/A 29.95 1014 3 4 N/A

Powered by AerisWeather